Hillsboro, OR

4:38 PM PDT on August 31, 2016 (GMT -0700)
Portland-Hillsboro

Weather History for KHIO - April, 2014

Change the Weather History Date:

Saturday, April 19, 2014

  Actual Average Record
Temperature  
Mean Temperature 48 °F 50 °F  
Max Temperature 60 °F 61 °F 88 °F (1934)
Min Temperature 36 °F 40 °F 29 °F (1977)
Degree Days  
Heating Degree Days 17 15  
Month to date heating degree days 267 301  
Since 1 July heating degree days 4511 4415  
Cooling Degree Days 0 0  
Month to date cooling degree days 0 0  
Year to date cooling degree days 0 0  
Moisture  
Dew Point 41 °F    
Average Humidity 74    
Maximum Humidity 96    
Minimum Humidity 51    
Precipitation  
Precipitation 0.06 in 0.09 in 0.69 in (1965)
Month to date precipitation 1.34 2.00  
Year to date precipitation 14.88 16.20  
Snow  
Snow 0.00 in - - ()
Month to date snowfall 0.0  
Since 1 July snowfall 0.0  
Snow Depth 0.00 in    
Sea Level Pressure  
Sea Level Pressure 29.99 in    
Wind  
Wind Speed 5 mph (SSW)    
Max Wind Speed 28 mph    
Max Gust Speed 37 mph    
Visibility 10 miles    
Events Rain    
T = Trace of Precipitation, MM = Missing Value Source: NWS Daily Summary

Daily Weather History Graph

Daily Weather History Graph

Search for Another Location

Airport or City:

Trip Planner

Search our weather history database for the weather conditions in past years. The results will help you decide how hot, cold, wet, or windy it might be!

Date:

Astronomy

Apr. 19, 2014 Rise Set
Actual Time 6:19 AM PDT 8:03 PM PDT
Civil Twilight 5:47 AM PDT 8:34 PM PDT
Nautical Twilight 5:09 AM PDT 9:13 PM PDT
Astronomical Twilight 4:28 AM PDT 9:55 PM PDT
Moon No Moon Rise 9:36 AM PDT (4/19)
Length of Visible Light 14h 47m
Length of Day
13h 44m
Waning Gibbous, 77% of the Moon is Illuminated
Apr 19
Waning Gibbous
Apr 22
Last Quarter
Apr 28
New
May 6
First Quarter
May 14
Full

Hourly Weather History & Observations

Time (PDT) Temp. Windchill Dew Point Humidity Pressure Visibility Wind Dir Wind Speed Gust Speed Precip Events Conditions
12:53 AM 41.0 °F - 37.9 °F 89% 29.86 in 10.0 mi Calm Calm - N/A   Clear
2:53 AM 37.9 °F - 36.0 °F 93% 29.85 in 10.0 mi Calm Calm - N/A   Clear
3:53 AM 37.0 °F - 35.1 °F 93% 29.85 in 10.0 mi Calm Calm - N/A   Clear
5:53 AM 37.9 °F - 36.0 °F 93% 29.85 in 10.0 mi Calm Calm - N/A   Clear
6:53 AM 39.0 °F - 37.0 °F 93% 29.85 in 10.0 mi Calm Calm - N/A   Overcast
7:53 AM 41.0 °F - 39.0 °F 93% 29.85 in 10.0 mi Calm Calm - N/A   Overcast
8:53 AM 43.0 °F - 41.0 °F 93% 29.85 in 10.0 mi Calm Calm - N/A   Overcast
9:53 AM 46.9 °F - 42.1 °F 83% 29.86 in 10.0 mi West 5.8 mph - N/A   Overcast
10:53 AM 46.9 °F - 43.0 °F 86% 29.89 in 5.0 mi Calm Calm - 0.03 in Rain Light Rain
11:53 AM 50.0 °F - 43.0 °F 77% 29.91 in 10.0 mi South 9.2 mph - 0.01 in   Overcast
12:33 PM 52.0 °F - 45.0 °F 77% 29.93 in 10.0 mi South 15.0 mph 25.3 mph N/A   Overcast
12:53 PM 52.0 °F - 45.0 °F 77% 29.94 in 10.0 mi SSE 12.7 mph - N/A   Overcast
1:53 PM 55.9 °F - 46.0 °F 69% 29.97 in 10.0 mi South 12.7 mph - 0.00 in   Overcast
2:53 PM 57.9 °F - 39.9 °F 51% 29.99 in 10.0 mi SW 17.3 mph 38.0 mph N/A   Mostly Cloudy
3:53 PM 55.0 °F - 45.0 °F 69% 30.05 in 10.0 mi West 12.7 mph 19.6 mph 0.02 in   Mostly Cloudy
4:53 PM 55.9 °F - 42.1 °F 60% 30.07 in 10.0 mi WSW 13.8 mph 20.7 mph 0.00 in   Mostly Cloudy
5:53 PM 55.0 °F - 41.0 °F 59% 30.11 in 10.0 mi WSW 12.7 mph 27.6 mph 0.00 in Rain Light Rain
6:53 PM 54.0 °F - 39.9 °F 59% 30.14 in 10.0 mi WSW 11.5 mph - 0.00 in   Partly Cloudy
7:53 PM 52.0 °F - 41.0 °F 66% 30.16 in 10.0 mi South 5.8 mph - N/A   Mostly Cloudy
8:53 PM 51.1 °F - 41.0 °F 68% 30.18 in 10.0 mi SSW 3.5 mph - N/A   Mostly Cloudy
9:53 PM 48.9 °F - 41.0 °F 74% 30.21 in 10.0 mi South 4.6 mph - N/A   Partly Cloudy
10:53 PM 44.1 °F 42.5 °F 39.9 °F 85% 30.23 in 10.0 mi North 3.5 mph - N/A   Scattered Clouds
11:53 PM 46.0 °F 43.9 °F 39.9 °F 79% 30.25 in 10.0 mi South 4.6 mph - N/A   Scattered Clouds